FW6293 Weather Reports


time (UTC)temp
C
wind
direction
speed
KPH
gust
KPH
rain 1hr
cm
rain 24hr
cm
rain mn
cm
humidity
%
barometer
mb
20260504081514 2 295 0.0 0.0 0.00 0.00 0.00 84 1021.0
20260504050117 5 295 0.0 0.0 0.00 0.00 0.00 74 1021.0
20260504044550 5 295 0.0 0.0 0.00 0.00 0.00 74 1021.0
20260504043057 5 295 0.0 0.0 0.00 0.00 0.00 72 1021.0
20260504041548 5 295 0.0 0.0 0.00 0.00 0.00 73 1021.0
20260504040045 5 295 0.0 0.0 0.00 0.00 0.00 73 1021.0
20260504034550 5 295 0.0 0.0 0.00 0.00 0.00 72 1021.0
20260504033046 5 295 0.0 0.0 0.00 0.00 0.00 70 1021.0
20260504031602 6 295 0.0 0.0 0.00 0.00 0.00 70 1021.0
20260504030044 6 295 0.0 0.0 0.00 0.00 0.00 68 1021.0
20260504024544 6 295 0.0 0.0 0.00 0.00 0.00 67 1021.0
20260504023042 6 295 0.0 0.0 0.00 0.00 0.00 65 1021.0
20260504021541 7 295 0.0 0.0 0.00 0.00 0.00 64 1021.0
20260504020041 7 295 0.0 0.0 0.00 0.00 0.00 62 1021.0
20260504014541 7 295 0.0 0.0 0.00 0.00 0.00 62 1021.0
20260504013040 8 295 0.0 0.0 0.00 0.00 0.00 62 1021.0
20260504011544 8 295 0.0 3.2 0.00 0.00 0.00 59 1021.0
20260504010044 9 296 0.0 0.0 0.00 0.00 0.00 58 1021.0
20260504004539 10 296 0.0 4.8 0.00 0.00 0.00 57 1021.0
20260504003044 10 300 1.6 4.8 0.00 0.00 0.00 55 1021.0
20260504001549 11 300 1.6 6.4 0.00 0.00 0.00 54 1021.0
20260504000037 11 300 1.6 4.8 0.00 0.00 0.00 52 1021.0
20260503234537 12 301 4.8 8.0 0.00 0.00 0.00 46 1021.0
20260503233037 13 305 4.8 11.3 0.00 0.00 0.00 45 1021.0
20260503231546 13 298 11.3 17.7 0.00 0.00 0.00 42 1021.0
20260503230036 14 284 6.4 17.7 0.00 0.00 0.00 42 1021.0
20260503224535 14 330 6.4 25.7 0.00 0.00 0.00 40 1021.0
20260503223136 15 323 9.7 20.9 0.00 0.00 0.00 40 1021.0
20260503221534 15 338 12.9 20.9 0.00 0.00 0.00 38 1021.0
20260503220038 15 313 6.4 20.9 0.00 0.00 0.00 41 1021.0
20260503214540 15 309 12.9 24.1 0.00 0.00 0.00 41 1021.0
20260503213049 15 321 17.7 27.4 0.00 0.00 0.00 40 1021.0
20260503211533 14 321 11.3 27.4 0.00 0.00 0.00 41 1021.0
20260503210032 15 313 12.9 20.9 0.00 0.00 0.00 40 1021.0
20260503204549 15 317 11.3 20.9 0.00 0.00 0.00 41 1021.0
20260503203028 15 307 6.4 22.5 0.00 0.00 0.00 43 1021.0
20260503201527 14 340 6.4 17.7 0.00 0.00 0.00 41 1021.0
20260503200026 13 327 9.7 17.7 0.00 0.00 0.00 39 1021.0
20260503194525 14 290 8.0 17.7 0.00 0.00 0.00 38 1021.0
20260503193023 14 328 9.7 22.5 0.00 0.00 0.00 43 1021.0
20260503191520 13 315 12.9 25.7 0.00 0.00 0.00 43 1021.0
20260503190020 13 321 8.0 25.7 0.00 0.00 0.00 44 1021.0
20260503184519 13 321 9.7 29.0 0.00 0.00 0.00 42 1021.0
20260503183016 12 305 12.9 25.7 0.00 0.00 0.00 45 1021.0
20260503181516 13 313 16.1 25.7 0.00 0.00 0.00 47 1021.0
20260503180026 12 329 8.0 19.3 0.00 0.00 0.00 48 1021.0
20260503174520 12 329 8.0 22.5 0.00 0.00 0.00 45 1021.0
20260503173015 12 323 3.2 22.5 0.00 0.00 0.00 41 1021.0
20260503171517 12 51 6.4 19.3 0.00 0.00 0.00 40 1021.0